DELTA 1 DEB, 21358

Orbit data source: Space-Track

DELTA 1 DEB, 21358 is space debris in SSO originally from a launch on Thu, 12 Jun 1975 UTC launched from the Air Force Western Test Range (AFWTR). Debris objects in space refer to the collection of defunct objects orbiting the Earth. Examples of debris include non-operational satellites, rocket bodies, and fragments generated from explosions, collisions, or faulty payload assembly.

Loading next visibility...
Identifier
21358, 1975-052CC
Orbit
SSO
Country
Flag of USUS
Related business
Manufacturer
Unknown
Mission
Spacecraft
Bus & Motor
Unknown
Mass
Unknown
Launch date (UTC)
1975-06-12 (50 years ago)
Launch vehicle
Unknown
Launch site
Air Force Western Test Range (AFWTR)
Object type
Payload
Rocket body
Debris
Shape & HBR
Unknown shape, 0.1 m
Radar Cross Section
Small (<0.1 m²)

Expand to show TLE details & history
Last TLE update: 9 hours ago

TLE from 9 hours ago
0 DELTA 1 DEB
1 21358U 75052CC  25300.21699812  .00000107  00000-0  36382-3 0  9999
2 21358  99.6493 201.7129 0167231 241.8021 272.8723 13.15447002649389
Epoch: 2025-10-27T05:12Z
TLE epoch observation values (Epoch: 2025-10-27T05:12:28.637Z)
Latitude
26.86113°
Longitude
-87.31351°
Altitude
1,201.053 km
Speed
7.258 km/s
True Right ascension
01h 46m 30s
True Declination
26° 43' 51"
Sunlit
Object was in full shadow at epoch
Visualization orbit readout
Latitude
Unknown
Longitude
Unknown
Altitude
Unknown
Speed
Unknown
Apparent Right ascension
Unknown
Apparent Declination
Unknown
Sunlit
N/A
Visualization observer readout
Local Sidereal Time
10:04:27
Azimuth
Unknown
Elevation
Unknown
Doppler factor
Unknown
Orbital elements
Apogee altitude
1,326.227 km
Perigee altitude
1,072.783 km
Semi-major axis
7,577.642 km
Eccentricity
0.01672
Inclination
99.6493°
RAAN
201.7129°
Arg. of periapsis
241.8021°
True anomaly
270.95673°
Mean anomaly
272.8723°
Eccentric anomaly
271.91467°
Mean motion
3.29035 °/min
Orbital period
109.41 mins
BSTAR
0.00036382
Loading maneuver chart data...
Computing Atmospheric mass density...
Loading historical data...
Loading historical data...
Loading historical data...
Loading historical data...
Loading historical data...
Loading historical data...
Loading historical data...

Documentation

Showing up to 5 results
|